Simultaneous Nadir Overpasses (SNOs) Predictions

Prediction of SNOs between NOAA-19 and METOP-C Satellite Orbit:

Table of predicted SNOs for the next 14.0 days since TLE Epoch: 7/16/2022
Index Date (NOAA-19) Time (NOAA-19) Lat,Lon (NOAA-19) SZA (NOAA-19 ) Date (METOP-C) Time (METOP-C) Lat,Lon (METOP-C) SZA (METOP-C ) Distance(km) Time Diff (sec)
1 07/24/2022 10:43:28 -80.87,-127.70 117.56 07/24/2022 10:44:36 -80.86,-127.69 117.54 0.70 68
2 07/24/2022 11:34:27 80.87, 39.70 62.46 07/24/2022 11:35:16 80.86, 39.65 62.47 0.97 49
3 07/24/2022 12:25:27 -80.86,-152.88 117.52 07/24/2022 12:25:57 -80.87,-152.83 117.50 1.30 30
4 07/24/2022 13:16:26 80.86, 14.51 62.50 07/24/2022 13:16:37 80.87, 14.51 62.51 1.25 11
5 07/24/2022 14:07:27 -80.86,-178.44 117.51 07/24/2022 14:07:19 -80.86,-178.33 117.51 1.96 8
6 07/24/2022 14:58:26 80.86, -11.05 62.51 07/24/2022 14:57:59 80.86, -10.98 62.51 1.30 27
7 07/24/2022 15:49:26 -80.86, 156.37 117.47 07/24/2022 15:48:40 -80.87, 156.53 117.46 3.23 46



Historial Predications of SNOs between NOAA-19 and METOP-C
